518  
ASUS43 KLOT 261858  
RWRIL  
 
ILLINOIS REGIONAL WEATHER ROUNDUP  
NATIONAL WEATHER SERVICE CHICAGO/ROMEOVILLE IL  
200 PM CDT THU APR 26 2018  
 
NOTE: "FAIR" INDICATES FEW OR NO CLOUDS BELOW 12,000 FEET WITH NO  
SIGNIFICANT WEATHER AND/OR S TO VISIBILITY
.  
 
* THESE STATIONS ARE NOT UNDER NWS QUALITY CONTROL. THEY ALSO MAY NOT  
REPORT WEATHER SUCH AS PRECIPITATION OR FOG.
 
 
ILZ001-002-007-009-015-016-024-262000-  
NORTHWEST ILLINOIS  
 
CITY SKY/WX TMP DP RH WIND PRES REMARKS
 
MOLINE NOT AVBL  

 
 
ILZ003-004-008-010-011-017-018-262000-  
NORTH CENTRAL ILLINOIS  
 
CITY SKY/WX TMP DP RH WIND PRES REMARKS
 
ROCKFORD NOT AVBL  

 
 
ILZ005-006-012>014-019>023-262000-  
NORTHEAST ILLINOIS  
 
CITY SKY/WX TMP DP RH WIND PRES REMARKS
 
CHICAGO-OHARE PTSUNNY 64 28 25 CALM 29.90F  
CHICAGO-MIDWAY NOT AVBL  
AURORA NOT AVBL  
WAUKEGAN NOT AVBL  
DUPAGE AIRPORT NOT AVBL  
WHEELING NOT AVBL  
NORTHERLY ISL N/A 46 35 65 E2 N/A  

 
 
LMZ740>746-262000-  
SOUTHERN LAKE MICHIGAN  
 
STATION/POSITION SKY/WX TEMP WIND PRES VSBY WAVE
 
AIR SEA DIR/SP/G HT/PER  
(F) (DEG/KT/KT) (MB) (MI) (FT/S)  
HARRISON CRIB 44 110/ 9/ 9 N/A  
BURNHAM HARBOR 46 90/ 4/ 6 N/A  
CALUMET HARBOR 47 50/ 6/ 7 1013.5F  
BURNS HARBOR 42 30/ 5/ 7 1014.6F  
MICHIGAN CITY 45 350/ 6/ 6 N/A  
ST. JOSEPH 42 44 340/ 6/ 8 1015.0F 1/ 5  

 
 
ILZ025>027-034>036-040-047-049-050-058-095>099-262000-  
WEST-CENTRAL ILLINOIS  
 
CITY SKY/WX TMP DP RH WIND PRES REMARKS
 

 
 
ILZ028>032-037-038-041>044-048-051>054-059>061-262000-  
CENTRAL ILLINOIS  
 
CITY SKY/WX TMP DP RH WIND PRES REMARKS
 
PEORIA NOT AVBL  
SPRINGFIELD NOT AVBL  
TAYLORVILLE NOT AVBL  

 
 
ILZ033-039-045-046-055>057-062-063-262000-  
EAST-CENTRAL ILLINOIS  
 
CITY SKY/WX TMP DP RH WIND PRES REMARKS
 

 
 
ILZ079-100>102-262000-  
SOUTHWEST ILLINOIS  
 
CITY SKY/WX TMP DP RH WIND PRES REMARKS
 
ALTON MOSUNNY 68 41 37 NW12 29.93F  

 
 
ILZ064>066-069>071-074>076-080>082-084>086-088>090-092>094-262000-  
SOUTH-CENTRAL ILLINOIS  
 
CITY SKY/WX TMP DP RH WIND PRES REMARKS
 
CARBONDALE CLOUDY 61 42 49 N10 29.93S  
MARION CLOUDY 59 41 51 NW6 29.93F  

 
 
ILZ067-068-072-073-078-083-087-091-262000-  
SOUTHEAST ILLINOIS  
 
CITY SKY/WX TMP DP RH WIND PRES REMARKS
 

 
 
ABBREVIATIONS USED IN REMARKS  
TC - TEMPERATURE IN CELSIUS  
WCI - WIND CHILL INDEX  
HX - HEAT INDEX  
VSB - VISIBILITY  

 
 
 
 
CLICK HERE TO GO TO PREVIOUS BULLETINS.

The Nexlab IL Page Main Text Page